Regional Weather Roundup
Issued by NWS Charleston, SC

Current Version | Previous Version | Graphics & Text | Print | Product List | Glossary On
Versions: 1 2 3 4 5 6 7 8 9 10 11 12 13 14 15 16 17 18 19 20 21 22 23 24 25 26 27 28 29 30 31 32 33 34 35 36 37 38 39 40 41 42 43 44 45 46 47 48 49 50
000
ASUS42 KCHS 050412
RWRCHS

REGIONAL WEATHER ROUNDUP
NATIONAL WEATHER SERVICE CHARLESTON SC
1200 AM EDT TUE MAY 05 2015

NOTE: "FAIR" INDICATES FEW OR NO CLOUDS BELOW 12,000 FEET WITH NO
SIGNIFICANT WEATHER AND/OR OBSTRUCTIONS TO VISIBILITY.

NOT ALL STATIONS ARE QUALITY CONTROLLED BY THE NATIONAL
WEATHER SERVICE. USE DATA WITH CAUTION...ESPECIALLY
DEWPOINT OBSERVATIONS.

SCZ027-030-031-034>040-042>050-050500-
...SOUTHEAST SOUTH CAROLINA...

CITY           SKY/WX    TMP DP  RH WIND       PRES   REMARKS
N CHARLESTON   PTCLDY    63  56  78 CALM      30.33S
WATERFRONT PRK   N/A     70 N/A N/A SE10        N/A
MOUNT PLEASANT FAIR      61  57  88 MISG      30.33S
PINOPOLIS      NOT AVBL
MONCKS CORNER  FAIR      59  55  88 CALM      30.33S
SUMMERVILLE    FAIR      59  57  94 CALM      30.34S
BEAUFORT MCAS  CLEAR     68  61  78 E3        30.31S
BEAUFORT ARPT  FAIR      64  63  94 CALM      30.31S
HILTON HEAD IS CLEAR     68  63  83 E3        30.32S
WALTERBORO     NOT AVBL
ALLENDALE      FAIR      61  55  82 CALM      30.31F

...SOUTHERN MIDLANDS AND PEE DEE...

CITY           SKY/WX    TMP DP  RH WIND       PRES   REMARKS
GEORGETOWN     NOT AVBL
KINGSTREE      NOT AVBL
ORANGEBURG     CLEAR     59  54  83 CALM      30.33S
BARNWELL       FAIR      61  55  82 CALM      30.33S
AIKEN          FAIR      61  52  72 CALM      30.36S
MANNING        FAIR      55  52  88 CALM      30.34S
COLUMBIA       CLEAR     68  55  63 CALM      30.33R
SUMTER         NOT AVBL
FLORENCE       CLEAR     62  55  77 S3        30.34S
MYRTLE BEACH     N/A     68  57  68 SE3       30.36S
N MYRTLE BEACH CLEAR     60  57  89 CALM      30.34S

$$

GAZ063-065-086>088-099>101-113>116-118-119-134>141-150-050500-
...SOUTHEAST GEORGIA...

CITY           SKY/WX    TMP DP  RH WIND       PRES   REMARKS
SAVANNAH ARPT  CLEAR     65  58  78 E5        30.31S
HUNTER AAF     NOT AVBL
FORT STEWART   NOT AVBL
STATESBORO       N/A     58  58 100 CALM      30.31F
SYLVANIA       CLEAR     59  58  96 CALM      30.32S
CLAXTON        FAIR      57  55  94 CALM      30.31S

...CSRA...CENTRAL AND FAR SOUTHEAST GEORGIA...

CITY           SKY/WX    TMP DP  RH WIND       PRES   REMARKS
THOMSON        CLEAR     66  58  75 CALM      30.36S
AUGUSTA-BUSH   CLEAR     61  56  83 CALM      30.32R
AUGUSTA-DANIEL CLEAR     67  54  63 S3        30.33R
SWAINSBORO     NOT AVBL
VIDALIA        CLEAR     63  55  77 CALM      30.31S
EASTMAN        FAIR      65  58  77 SE3       30.32S
HAZLEHURST     FAIR      65  56  72 SE3       30.29S
ALMA           CLEAR     59  54  83 CALM      30.29F
WAYCROSS       CLEAR     64  59  84 E3        30.29S
JESUP          FAIR      61  59  94 CALM      30.30S FOG
BAXLEY         FAIR      63  59  88 CALM      30.30S
BRUNSWICK      PTCLDY    63  59  88 CALM      30.30S
SAINT SIMONS   PTCLDY    70  61  73 E7        30.28F

$$

SCZ027-028-034-036>038-045-046-048>050-GAZ119-141-050500-
...LAKE AND SUPPLEMENTAL COASTAL OBSERVATIONS...

STATION/POSITION TIME  TEMP    WIND        PRES    WAVE   SWELL
                       AIR SEA DIR/SP/G            HT/PER HT/PER/DIR
                 (UTC) (F)     (DEG/KT/KT) (MB)    (FT/S) (FT/S/D)
UPR LAKE MARION  NOT AVBL
WINYAH BAY       0245   71     140/  6     1026.0
LAKE MURRAY      0300   70     180/  7/  9 1026.1R
ACE BASIN NERRS  NOT AVBL
FORT PULASKI     0300   71 71   70/  9/ 10 1026.7R
SAPELO ISLAND    0300   66      60/  3     1026.0R

$$

ANZ835-935-AMZ111-154-330-350-352-354-370-450-454-472-050500-
...C-MAN AND BUOY OBSERVATIONS...

STATION/POSITION TIME  TEMP    WIND        PRES    WAVE   SWELL
                       AIR SEA DIR/SP/G            HT/PER HT/PER/DIR
                 (UTC) (F)     (DEG/KT/KT) (MB)    (FT/S) (FT/S/D)
BUOY 41004       0350   73 74  100/ 16/ 19 1026.2F   4/ 4   2/11
BUOY 41008       0350   71 70   90/  8/  8 1025.8F   3/ 6   3/100/ 6
FOLLY BEACH CMAN 0400   71     120/  8/ 10 1026.8S
CAPERS NEARSHORE NOT AVBL
FRIPP NEARSHORE  0300   71      90/  8/  8 1025.6


STATION/POSITION TIME  TEMP    WIND        PRES    WAVE   SWELL
                       AIR SEA DIR/SP/G            HT/PER HT/PER/DIR
                 (UTC) (F)     (DEG/KT/KT) (MB)    (FT/S) (FT/S/D)
5E ST. MARYS GA  0321      72                N/A     4/ 5   2/ 60/13
FRYING PAN BUOY  0350   74 72  140/ 14/ 16 1028.0F   4/ 8   2/ 90/ 8
BUOY 41025       0350   74 77  200/ 14/ 17 1027.9R   3/10   3/ 70/10
CAPE LOOKOUT NC  0300   68     180/  6/  6 1027.8R
BUOY 41002       0350   68 70  110/ 14/ 16 1027.7F   5/10   3/ 50/10
BUOY 41010       0320   74 78   90/ 19/ 23 1023.2F
ST AUGUSTINE FL  0400   72 72   90/ 11/ 13 1025.2R


$$



USA.gov is the U.S. government's official web portal to all federal, state and local government web resources and services.